| time (UTC) | temp F | wind direction | speed MPH | gust MPH | rain 1hr in | rain 24hr in | rain mn in | humidity % | barometer mb |
| 20260507114840 | 58 | 45 | 0.0 | 0.0 | 0.00 | 0.01 | 0.01 | 54 | 1012.5 |
| 20260507114440 | 58 | 0 | 0.0 | 0.0 | 0.00 | 0.01 | 0.01 | 54 | 1012.6 |
| 20260507114239 | 58 | 315 | 0.0 | 0.0 | 0.00 | 0.01 | 0.01 | 54 | 1012.5 |
| 20260507113838 | 58 | 135 | 0.0 | 0.0 | 0.00 | 0.01 | 0.01 | 54 | 1012.7 |
| 20260507113437 | 58 | 180 | 0.0 | 0.0 | 0.00 | 0.01 | 0.01 | 54 | 1012.6 |
| 20260507113035 | 58 | 45 | 0.0 | 1.0 | 0.01 | 0.01 | 0.01 | 54 | 1012.6 |
| 20260507112635 | 58 | 0 | 0.0 | 2.0 | 0.01 | 0.01 | 0.01 | 53 | 1012.6 |
| 20260507112234 | 58 | 0 | 0.0 | 0.0 | 0.01 | 0.01 | 0.01 | 52 | 1012.6 |
| 20260507111835 | 58 | 90 | 0.0 | 2.0 | 0.01 | 0.01 | 0.01 | 52 | 1012.6 |
| 20260507111431 | 58 | 225 | 0.0 | 1.0 | 0.01 | 0.01 | 0.01 | 50 | 1012.7 |
| 20260507111029 | 59 | 0 | 0.0 | 2.0 | 0.01 | 0.01 | 0.01 | 50 | 1012.6 |
| 20260507110628 | 59 | 45 | 0.0 | 0.0 | 0.01 | 0.01 | 0.01 | 48 | 1012.6 |
| 20260507110226 | 59 | 180 | 0.0 | 1.0 | 0.01 | 0.01 | 0.01 | 49 | 1012.7 |
| 20260507104823 | 60 | 90 | 0.0 | 0.0 | 0.01 | 0.01 | 0.01 | 47 | 1012.5 |
| 20260507104422 | 60 | 180 | 0.0 | 1.0 | 0.01 | 0.01 | 0.01 | 47 | 1012.5 |
| 20260507104020 | 60 | 90 | 0.0 | 2.0 | 0.01 | 0.01 | 0.01 | 47 | 1012.6 |
| 20260507103620 | 60 | 90 | 0.0 | 0.0 | 0.00 | 0.00 | 0.01 | 48 | 1012.6 |
| 20260507103218 | 59 | 90 | 0.0 | 1.0 | 0.00 | 0.00 | 0.00 | 49 | 1012.5 |
| 20260507102216 | 59 | 180 | 0.0 | 1.0 | 0.00 | 0.00 | 0.00 | 44 | 1012.8 |
| 20260507101815 | 60 | 135 | 0.0 | 1.0 | 0.00 | 0.00 | 0.00 | 44 | 1012.7 |
| 20260507101413 | 60 | 135 | 0.0 | 0.0 | 0.00 | 0.00 | 0.00 | 43 | 1012.6 |
| 20260507101013 | 60 | 90 | 0.0 | 1.0 | 0.00 | 0.00 | 0.00 | 43 | 1012.7 |
| 20260507100612 | 60 | 225 | 0.0 | 0.0 | 0.00 | 0.00 | 0.00 | 44 | 1012.7 |
| 20260507100210 | 60 | 135 | 0.0 | 1.0 | 0.00 | 0.00 | 0.00 | 44 | 1012.7 |
| 20260507095809 | 60 | 45 | 0.0 | 1.0 | 0.00 | 0.00 | 0.00 | 43 | 1012.7 |
| 20260507095608 | 61 | 45 | 0.0 | 1.0 | 0.00 | 0.00 | 0.00 | 43 | 1012.6 |
| 20260507095207 | 61 | 0 | 0.0 | 1.0 | 0.00 | 0.00 | 0.00 | 42 | 1012.5 |
| 20260507094807 | 61 | 225 | 0.0 | 1.0 | 0.00 | 0.00 | 0.00 | 42 | 1012.6 |
| 20260507094405 | 60 | 45 | 0.0 | 2.0 | 0.00 | 0.00 | 0.00 | 43 | 1012.6 |
| 20260507094004 | 60 | 45 | 0.0 | 1.0 | 0.00 | 0.00 | 0.00 | 44 | 1012.5 |
| 20260507093603 | 60 | 90 | 1.0 | 4.0 | 0.00 | 0.00 | 0.00 | 43 | 1012.5 |
| 20260507093202 | 60 | 135 | 0.0 | 2.0 | 0.00 | 0.00 | 0.00 | 45 | 1012.5 |
| 20260507092159 | 60 | 0 | 0.0 | 0.0 | 0.00 | 0.00 | 0.00 | 46 | 1012.5 |
| 20260507091758 | 59 | 45 | 0.0 | 0.0 | 0.00 | 0.00 | 0.00 | 46 | 1012.5 |
| 20260507090955 | 59 | 225 | 0.0 | 2.0 | 0.00 | 0.00 | 0.00 | 46 | 1012.7 |
| 20260507090555 | 59 | 135 | 0.0 | 0.0 | 0.00 | 0.00 | 0.00 | 47 | 1012.5 |
| 20260507085953 | 58 | 0 | 0.0 | 0.0 | 0.00 | 0.00 | 0.00 | 48 | 1012.4 |
| 20260507085552 | 58 | 180 | 0.0 | 0.0 | 0.00 | 0.00 | 0.00 | 47 | 1012.4 |
| 20260507085151 | 58 | 45 | 0.0 | 0.0 | 0.00 | 0.00 | 0.00 | 48 | 1012.5 |
| 20260507084749 | 58 | 180 | 0.0 | 0.0 | 0.00 | 0.00 | 0.00 | 47 | 1012.5 |
| 20260507084349 | 58 | 45 | 0.0 | 1.0 | 0.00 | 0.00 | 0.00 | 47 | 1012.4 |
| 20260507083947 | 58 | 135 | 0.0 | 0.0 | 0.00 | 0.00 | 0.00 | 47 | 1012.4 |
| 20260507083746 | 59 | 180 | 0.0 | 0.0 | 0.00 | 0.00 | 0.00 | 46 | 1012.3 |
| 20260507083345 | 59 | 315 | 0.0 | 1.0 | 0.00 | 0.00 | 0.00 | 45 | 1012.1 |
| 20260507082943 | 59 | 225 | 0.0 | 0.0 | 0.00 | 0.00 | 0.00 | 45 | 1012.2 |
| 20260507082543 | 60 | 225 | 0.0 | 0.0 | 0.00 | 0.00 | 0.00 | 45 | 1012.1 |
| 20260507082142 | 60 | 0 | 0.0 | 0.0 | 0.00 | 0.00 | 0.00 | 45 | 1012.0 |
| 20260507080738 | 60 | 248 | 0.0 | 1.0 | 0.00 | 0.00 | 0.00 | 44 | 1011.8 |
| 20260507080337 | 60 | 90 | 1.0 | 3.0 | 0.00 | 0.00 | 0.00 | 44 | 1011.9 |
| 20260507075935 | 60 | 315 | 0.0 | 0.0 | 0.00 | 0.00 | 0.00 | 44 | 1012.0 |
| 20260507075734 | 60 | 45 | 0.0 | 1.0 | 0.00 | 0.00 | 0.00 | 44 | 1012.0 |
| 20260507075333 | 60 | 0 | 0.0 | 0.0 | 0.00 | 0.00 | 0.00 | 43 | 1012.0 |
| 20260507074931 | 60 | 45 | 0.0 | 1.0 | 0.00 | 0.00 | 0.00 | 43 | 1011.9 |
| 20260507074530 | 61 | 45 | 1.0 | 2.0 | 0.00 | 0.00 | 0.00 | 42 | 1011.7 |
| 20260507074129 | 61 | 0 | 0.0 | 1.0 | 0.00 | 0.00 | 0.00 | 43 | 1011.7 |
| 20260507072726 | 59 | 225 | 0.0 | 0.0 | 0.00 | 0.00 | 0.00 | 46 | 1011.6 |
| 20260507072324 | 58 | 135 | 0.0 | 1.0 | 0.00 | 0.00 | 0.00 | 49 | 1011.8 |
| 20260507071923 | 57 | 90 | 0.0 | 0.0 | 0.00 | 0.00 | 0.00 | 51 | 1011.8 |
| 20260507071523 | 56 | 45 | 0.0 | 1.0 | 0.00 | 0.00 | 0.00 | 51 | 1011.8 |
| 20260507070520 | 56 | 135 | 0.0 | 0.0 | 0.00 | 0.00 | 0.00 | 52 | 1011.9 |
| 20260507070118 | 56 | 45 | 0.0 | 0.0 | 0.00 | 0.00 | 0.00 | 52 | 1011.7 |
| 20260507065717 | 56 | 90 | 0.0 | 1.0 | 0.00 | 0.00 | 0.00 | 52 | 1011.7 |
| 20260507065316 | 56 | 90 | 0.0 | 0.0 | 0.00 | 0.00 | 0.00 | 52 | 1011.7 |
| 20260507064914 | 56 | 45 | 2.0 | 3.0 | 0.00 | 0.00 | 0.00 | 53 | 1011.7 |
| 20260507064713 | 56 | 0 | 0.0 | 0.0 | 0.00 | 0.00 | 0.00 | 53 | 1011.7 |
| 20260507064312 | 56 | 23 | 0.0 | 0.0 | 0.00 | 0.00 | 0.00 | 53 | 1011.7 |
| 20260507063911 | 56 | 90 | 0.0 | 0.0 | 0.00 | 0.09 | 0.00 | 53 | 1011.7 |
| 20260507063509 | 56 | 135 | 0.0 | 0.0 | 0.00 | 0.11 | 0.00 | 54 | 1011.5 |
| 20260507063108 | 55 | 0 | 0.0 | 0.0 | 0.00 | 0.11 | 0.00 | 54 | 1011.7 |
| 20260507062707 | 55 | 45 | 0.0 | 0.0 | 0.00 | 0.11 | 0.00 | 54 | 1011.6 |
| 20260507061704 | 55 | 270 | 0.0 | 0.0 | 0.00 | 0.11 | 0.00 | 55 | 1011.4 |
| 20260507061303 | 55 | 315 | 0.0 | 0.0 | 0.00 | 0.11 | 0.00 | 55 | 1011.4 |
| 20260507060901 | 55 | 180 | 0.0 | 1.0 | 0.00 | 0.11 | 0.00 | 55 | 1011.4 |
| 20260507060501 | 54 | 315 | 0.0 | 0.0 | 0.00 | 0.11 | 0.00 | 56 | 1011.3 |
| 20260507055859 | 54 | 90 | 0.0 | 0.0 | 0.00 | 0.11 | 0.00 | 57 | 1011.4 |
| 20260507055458 | 54 | 135 | 0.0 | 0.0 | 0.00 | 0.11 | 0.00 | 57 | 1011.4 |
| 20260507055057 | 54 | 0 | 0.0 | 1.0 | 0.00 | 0.11 | 0.00 | 58 | 1011.3 |
| 20260507054655 | 54 | 315 | 0.0 | 0.0 | 0.00 | 0.11 | 0.00 | 59 | 1011.3 |
| 20260507054254 | 54 | 0 | 0.0 | 0.0 | 0.00 | 0.11 | 0.00 | 60 | 1011.2 |
| 20260507053853 | 54 | 225 | 0.0 | 1.0 | 0.00 | 0.11 | 0.00 | 61 | 1011.2 |
| 20260507053252 | 54 | 270 | 0.0 | 0.0 | 0.00 | 0.11 | 0.00 | 61 | 1011.2 |
| 20260507052850 | 54 | 90 | 0.0 | 0.0 | 0.00 | 0.11 | 0.00 | 61 | 1011.2 |
| 20260507052449 | 54 | 45 | 0.0 | 1.0 | 0.00 | 0.11 | 0.00 | 61 | 1011.1 |
| 20260507052048 | 54 | 315 | 0.0 | 0.0 | 0.00 | 0.11 | 0.00 | 62 | 1011.1 |
| 20260507051646 | 54 | 248 | 0.0 | 1.0 | 0.00 | 0.11 | 0.00 | 62 | 1011.0 |
| 20260507051245 | 54 | 45 | 0.0 | 0.0 | 0.00 | 0.11 | 0.00 | 62 | 1010.9 |
| 20260507050843 | 54 | 180 | 0.0 | 0.0 | 0.00 | 0.11 | 0.00 | 62 | 1010.9 |
| 20260507050442 | 54 | 0 | 0.0 | 1.0 | 0.00 | 0.11 | 0.00 | 62 | 1010.7 |
| 20260507045439 | 53 | 113 | 0.0 | 0.0 | 0.00 | 0.11 | 0.00 | 64 | 1010.6 |
| 20260507045038 | 53 | 23 | 0.0 | 1.0 | 0.00 | 0.11 | 0.00 | 64 | 1010.7 |
| 20260507044637 | 53 | 45 | 0.0 | 1.0 | 0.00 | 0.11 | 0.00 | 64 | 1010.6 |
| 20260507044235 | 53 | 293 | 0.0 | 0.0 | 0.00 | 0.11 | 0.00 | 64 | 1010.6 |
| 20260507043834 | 53 | 45 | 0.0 | 0.0 | 0.00 | 0.11 | 0.00 | 64 | 1010.6 |
| 20260507043433 | 53 | 293 | 0.0 | 0.0 | 0.00 | 0.11 | 0.00 | 64 | 1010.6 |
| 20260507042430 | 54 | 135 | 0.0 | 1.0 | 0.00 | 0.12 | 0.00 | 62 | 1010.5 |
| 20260507042029 | 54 | 225 | 0.0 | 0.0 | 0.00 | 0.12 | 0.00 | 62 | 1010.5 |
| 20260507041627 | 54 | 45 | 0.0 | 0.0 | 0.00 | 0.12 | 0.00 | 62 | 1010.4 |
| 20260507041226 | 54 | 45 | 0.0 | 1.0 | 0.00 | 0.12 | 0.00 | 62 | 1010.5 |
| 20260507040825 | 54 | 315 | 0.0 | 0.0 | 0.00 | 0.12 | 0.00 | 62 | 1010.3 |
| 20260507040423 | 54 | 68 | 0.0 | 0.0 | 0.00 | 0.14 | 0.00 | 63 | 1010.4 |
| 20260507035822 | 54 | 315 | 0.0 | 1.0 | 0.00 | 0.14 | 0.00 | 63 | 1010.4 |
| 20260507035420 | 54 | 0 | 0.0 | 0.0 | 0.00 | 0.15 | 0.00 | 63 | 1010.4 |
| 20260507035020 | 54 | 45 | 0.0 | 1.0 | 0.00 | 0.16 | 0.00 | 63 | 1010.5 |
| 20260507034618 | 54 | 45 | 0.0 | 0.0 | 0.00 | 0.16 | 0.00 | 63 | 1010.4 |
| 20260507034217 | 54 | 315 | 0.0 | 0.0 | 0.00 | 0.16 | 0.00 | 63 | 1010.5 |
| 20260507033815 | 54 | 23 | 0.0 | 0.0 | 0.00 | 0.16 | 0.00 | 62 | 1010.5 |
| 20260507033414 | 54 | 45 | 0.0 | 0.0 | 0.00 | 0.16 | 0.00 | 62 | 1010.5 |
| 20260507033013 | 54 | 180 | 0.0 | 0.0 | 0.00 | 0.16 | 0.00 | 62 | 1010.3 |
| 20260507032010 | 54 | 90 | 0.0 | 1.0 | 0.00 | 0.16 | 0.00 | 63 | 1010.3 |
| 20260507031609 | 54 | 45 | 0.0 | 0.0 | 0.00 | 0.16 | 0.00 | 63 | 1010.3 |
| 20260507031207 | 54 | 90 | 0.0 | 0.0 | 0.00 | 0.16 | 0.00 | 63 | 1010.4 |
| 20260507030806 | 54 | 45 | 0.0 | 1.0 | 0.00 | 0.16 | 0.00 | 63 | 1010.4 |
| 20260507030404 | 54 | 135 | 0.0 | 0.0 | 0.00 | 0.16 | 0.00 | 63 | 1010.3 |
| 20260507030003 | 54 | 0 | 0.0 | 0.0 | 0.00 | 0.16 | 0.00 | 63 | 1010.2 |
| 20260507025401 | 54 | 0 | 0.0 | 0.0 | 0.00 | 0.17 | 0.00 | 63 | 1010.4 |
| 20260507025000 | 54 | 45 | 0.0 | 0.0 | 0.00 | 0.20 | 0.00 | 63 | 1010.3 |
| 20260507024558 | 54 | 45 | 0.0 | 0.0 | 0.00 | 0.21 | 0.00 | 63 | 1010.3 |
| 20260507024157 | 54 | 45 | 0.0 | 1.0 | 0.00 | 0.22 | 0.00 | 63 | 1010.3 |
| 20260507023756 | 54 | 113 | 0.0 | 0.0 | 0.00 | 0.23 | 0.00 | 64 | 1010.2 |
| 20260507022753 | 54 | 45 | 0.0 | 0.0 | 0.00 | 0.27 | 0.00 | 63 | 1010.3 |
| 20260507022351 | 54 | 45 | 0.0 | 1.0 | 0.00 | 0.29 | 0.00 | 63 | 1010.3 |
| 20260507021950 | 54 | 135 | 0.0 | 0.0 | 0.00 | 0.34 | 0.00 | 63 | 1010.2 |
| 20260507021548 | 54 | 45 | 0.0 | 0.0 | 0.00 | 0.38 | 0.00 | 63 | 1010.3 |
| 20260507021147 | 54 | 45 | 0.0 | 0.0 | 0.00 | 0.40 | 0.00 | 63 | 1010.3 |
| 20260507020751 | 54 | 180 | 0.0 | 0.0 | 0.00 | 0.41 | 0.00 | 62 | 1010.3 |
| 20260507020545 | 54 | 23 | 0.0 | 0.0 | 0.00 | 0.41 | 0.00 | 62 | 1010.3 |
| 20260507020144 | 54 | 90 | 0.0 | 0.0 | 0.00 | 0.42 | 0.00 | 62 | 1010.3 |
| 20260507015743 | 54 | 135 | 0.0 | 0.0 | 0.00 | 0.43 | 0.00 | 62 | 1010.3 |
| 20260507015341 | 54 | 90 | 0.0 | 0.0 | 0.00 | 0.46 | 0.00 | 61 | 1010.2 |
| 20260507014940 | 54 | 90 | 0.0 | 1.0 | 0.00 | 0.47 | 0.00 | 61 | 1010.3 |
| 20260507014539 | 54 | 270 | 0.0 | 0.0 | 0.00 | 0.48 | 0.00 | 61 | 1010.3 |
| 20260507014137 | 54 | 225 | 0.0 | 1.0 | 0.00 | 0.49 | 0.00 | 61 | 1010.3 |
| 20260507013135 | 54 | 270 | 0.0 | 0.0 | 0.00 | 0.56 | 0.00 | 60 | 1010.3 |
| 20260507012734 | 54 | 135 | 0.0 | 0.0 | 0.00 | 0.56 | 0.00 | 59 | 1010.3 |
| 20260507012332 | 54 | 45 | 0.0 | 0.0 | 0.00 | 0.57 | 0.00 | 59 | 1010.3 |
| 20260507011931 | 54 | 90 | 0.0 | 1.0 | 0.00 | 0.59 | 0.00 | 58 | 1010.3 |
| 20260507011530 | 54 | 45 | 0.0 | 0.0 | 0.00 | 0.60 | 0.00 | 58 | 1010.3 |
| 20260507011128 | 54 | 45 | 0.0 | 0.0 | 0.00 | 0.62 | 0.00 | 58 | 1010.2 |
| 20260507010527 | 54 | 0 | 0.0 | 0.0 | 0.00 | 0.63 | 0.00 | 58 | 1010.4 |
| 20260507010126 | 54 | 45 | 0.0 | 0.0 | 0.00 | 0.64 | 0.00 | 58 | 1010.4 |
| 20260507005725 | 54 | 45 | 0.0 | 0.0 | 0.00 | 0.66 | 0.00 | 58 | 1010.5 |
| 20260507005324 | 54 | 90 | 0.0 | 1.0 | 0.00 | 0.66 | 0.00 | 57 | 1010.5 |
| 20260507004922 | 54 | 180 | 0.0 | 1.0 | 0.00 | 0.66 | 0.00 | 58 | 1010.5 |
| 20260507004521 | 54 | 45 | 0.0 | 0.0 | 0.00 | 0.67 | 0.00 | 58 | 1010.5 |
| 20260507004320 | 54 | 90 | 0.0 | 0.0 | 0.00 | 0.67 | 0.00 | 58 | 1010.4 |
| 20260507003919 | 54 | 315 | 0.0 | 0.0 | 0.00 | 0.67 | 0.00 | 58 | 1010.4 |
| 20260507003517 | 54 | 315 | 0.0 | 0.0 | 0.00 | 0.67 | 0.00 | 58 | 1010.4 |
| 20260507003116 | 54 | 0 | 0.0 | 0.0 | 0.00 | 0.67 | 0.00 | 57 | 1010.4 |
| 20260507002716 | 54 | 180 | 0.0 | 0.0 | 0.00 | 0.67 | 0.00 | 57 | 1010.4 |
| 20260507002315 | 54 | 113 | 0.0 | 0.0 | 0.00 | 0.67 | 0.00 | 57 | 1010.4 |
| 20260507001913 | 54 | 45 | 0.0 | 0.0 | 0.00 | 0.67 | 0.00 | 56 | 1010.5 |
| 20260507001311 | 55 | 180 | 0.0 | 0.0 | 0.00 | 0.67 | 0.00 | 55 | 1010.4 |
| 20260507000910 | 55 | 45 | 0.0 | 2.0 | 0.00 | 0.67 | 0.00 | 54 | 1010.4 |
| 20260507000509 | 55 | 135 | 0.0 | 1.0 | 0.00 | 0.67 | 0.00 | 53 | 1010.4 |
| 20260507000108 | 55 | 90 | 0.0 | 0.0 | 0.00 | 0.67 | 0.00 | 53 | 1010.5 |
| 20260506235707 | 55 | 180 | 0.0 | 0.0 | 0.00 | 0.67 | 0.00 | 53 | 1010.5 |
| 20260506235105 | 55 | 135 | 0.0 | 2.0 | 0.00 | 0.67 | 0.00 | 54 | 1010.5 |
| 20260506234703 | 55 | 135 | 0.0 | 2.0 | 0.00 | 0.67 | 0.00 | 54 | 1010.5 |
| 20260506234302 | 55 | 0 | 0.0 | 2.0 | 0.00 | 0.67 | 0.00 | 55 | 1010.5 |
| 20260506233901 | 55 | 23 | 0.0 | 1.0 | 0.00 | 0.67 | 0.00 | 55 | 1010.5 |
| 20260506233459 | 55 | 113 | 0.0 | 0.0 | 0.00 | 0.67 | 0.00 | 55 | 1010.6 |
| 20260506233058 | 55 | 158 | 0.0 | 0.0 | 0.00 | 0.67 | 0.00 | 55 | 1010.5 |
| 20260506232657 | 55 | 180 | 0.0 | 1.0 | 0.00 | 0.67 | 0.00 | 55 | 1010.5 |
| 20260506231654 | 55 | 135 | 0.0 | 0.0 | 0.00 | 0.67 | 0.00 | 54 | 1010.6 |
| 20260506231253 | 55 | 45 | 0.0 | 1.0 | 0.00 | 0.67 | 0.00 | 54 | 1010.6 |
| 20260506230852 | 55 | 135 | 0.0 | 1.0 | 0.00 | 0.67 | 0.00 | 54 | 1010.6 |
| 20260506230451 | 55 | 90 | 0.0 | 0.0 | 0.00 | 0.67 | 0.00 | 53 | 1010.5 |
| 20260506230050 | 55 | 225 | 0.0 | 0.0 | 0.00 | 0.67 | 0.00 | 54 | 1010.6 |
| 20260506225448 | 55 | 135 | 0.0 | 1.0 | 0.00 | 0.67 | 0.00 | 54 | 1010.5 |
| 20260506225047 | 55 | 45 | 0.0 | 1.0 | 0.00 | 0.67 | 0.00 | 54 | 1010.5 |
| 20260506224646 | 55 | 68 | 0.0 | 0.0 | 0.00 | 0.67 | 0.00 | 54 | 1010.5 |
| 20260506224244 | 55 | 90 | 0.0 | 0.0 | 0.00 | 0.67 | 0.00 | 54 | 1010.5 |
| 20260506223843 | 55 | 135 | 0.0 | 0.0 | 0.00 | 0.67 | 0.00 | 54 | 1010.5 |
| 20260506223442 | 55 | 135 | 0.0 | 0.0 | 0.00 | 0.67 | 0.00 | 54 | 1010.5 |
| 20260506222840 | 55 | 180 | 0.0 | 0.0 | 0.00 | 0.67 | 0.00 | 53 | 1010.5 |
| 20260506222439 | 55 | 225 | 0.0 | 0.0 | 0.00 | 0.67 | 0.00 | 53 | 1010.5 |
| 20260506222038 | 55 | 0 | 0.0 | 1.0 | 0.00 | 0.67 | 0.00 | 53 | 1010.5 |
| 20260506221638 | 55 | 180 | 0.0 | 0.0 | 0.00 | 0.67 | 0.00 | 53 | 1010.6 |
| 20260506221236 | 55 | 0 | 0.0 | 1.0 | 0.00 | 0.67 | 0.00 | 53 | 1010.6 |
| 20260506220835 | 55 | 248 | 0.0 | 1.0 | 0.00 | 0.67 | 0.00 | 53 | 1010.5 |
| 20260506220434 | 55 | 180 | 0.0 | 1.0 | 0.00 | 0.00 | 0.00 | 53 | 1010.5 |
| 20260506220014 | 55 | 45 | 0.0 | 1.0 | 0.00 | 0.67 | 0.67 | 53 | 1010.6 |
| 20260506215613 | 55 | 225 | 0.0 | 0.0 | 0.00 | 0.67 | 0.67 | 53 | 1010.6 |
| 20260506215212 | 55 | 180 | 0.0 | 1.0 | 0.00 | 0.67 | 0.67 | 53 | 1010.6 |
| 20260506214810 | 55 | 45 | 0.0 | 1.0 | 0.00 | 0.67 | 0.67 | 53 | 1010.5 |
| 20260506214409 | 55 | 180 | 0.0 | 0.0 | 0.00 | 0.67 | 0.67 | 53 | 1010.5 |
| 20260506213807 | 55 | 270 | 0.0 | 1.0 | 0.00 | 0.67 | 0.67 | 55 | 1010.5 |
| 20260506213407 | 55 | 135 | 0.0 | 0.0 | 0.00 | 0.67 | 0.67 | 55 | 1010.5 |
| 20260506213005 | 55 | 45 | 0.0 | 0.0 | 0.00 | 0.67 | 0.67 | 55 | 1010.5 |
| 20260506212604 | 55 | 45 | 0.0 | 0.0 | 0.00 | 0.67 | 0.67 | 56 | 1010.6 |
| 20260506212203 | 54 | 225 | 0.0 | 1.0 | 0.00 | 0.67 | 0.67 | 57 | 1010.5 |
| 20260506211802 | 54 | 90 | 0.0 | 1.0 | 0.00 | 0.67 | 0.67 | 57 | 1010.5 |
| 20260506211402 | 54 | 135 | 0.0 | 0.0 | 0.00 | 0.67 | 0.67 | 57 | 1010.4 |
| 20260506210759 | 54 | 225 | 0.0 | 0.0 | 0.00 | 0.67 | 0.67 | 57 | 1010.5 |
| 20260506210359 | 55 | 203 | 0.0 | 0.0 | 0.00 | 0.67 | 0.67 | 57 | 1010.3 |
| 20260506205959 | 55 | 135 | 0.0 | 0.0 | 0.00 | 0.67 | 0.67 | 57 | 1010.5 |
| 20260506205556 | 55 | 293 | 0.0 | 0.0 | 0.00 | 0.67 | 0.67 | 57 | 1010.5 |
| 20260506205155 | 55 | 135 | 0.0 | 1.0 | 0.00 | 0.67 | 0.67 | 57 | 1010.4 |
| 20260506204754 | 55 | 135 | 0.0 | 1.0 | 0.00 | 0.67 | 0.67 | 57 | 1010.4 |
| 20260506204354 | 55 | 135 | 0.0 | 0.0 | 0.00 | 0.67 | 0.67 | 56 | 1010.6 |
| 20260506203954 | 55 | 113 | 0.0 | 0.0 | 0.00 | 0.67 | 0.67 | 57 | 1010.4 |
| 20260506202951 | 55 | 135 | 0.0 | 1.0 | 0.00 | 0.67 | 0.67 | 57 | 1010.3 |
| 20260506202550 | 55 | 135 | 0.0 | 0.0 | 0.00 | 0.67 | 0.67 | 56 | 1010.4 |
| 20260506202150 | 54 | 225 | 0.0 | 0.0 | 0.00 | 0.67 | 0.67 | 55 | 1010.4 |
| 20260506201750 | 55 | 180 | 0.0 | 0.0 | 0.00 | 0.67 | 0.67 | 55 | 1010.3 |
| 20260506201348 | 55 | 225 | 0.0 | 0.0 | 0.00 | 0.67 | 0.67 | 55 | 1010.3 |
| 20260506200946 | 55 | 135 | 0.0 | 0.0 | 0.00 | 0.67 | 0.67 | 54 | 1010.2 |
| 20260506195945 | 55 | 135 | 0.0 | 0.0 | 0.00 | 0.67 | 0.67 | 53 | 1010.0 |
| 20260506195543 | 55 | 180 | 0.0 | 0.0 | 0.00 | 0.67 | 0.67 | 53 | 1009.9 |
| 20260506195142 | 55 | 180 | 0.0 | 0.0 | 0.00 | 0.67 | 0.67 | 53 | 1009.9 |
| 20260506194741 | 55 | 135 | 0.0 | 0.0 | 0.00 | 0.67 | 0.67 | 53 | 1009.9 |
| 20260506194340 | 55 | 225 | 0.0 | 0.0 | 0.00 | 0.67 | 0.67 | 52 | 1009.8 |
| 20260506193938 | 56 | 135 | 0.0 | 0.0 | 0.00 | 0.67 | 0.67 | 51 | 1009.7 |
| 20260506193737 | 56 | 180 | 0.0 | 0.0 | 0.00 | 0.67 | 0.67 | 51 | 1009.8 |
| 20260506193336 | 56 | 90 | 0.0 | 0.0 | 0.00 | 0.67 | 0.67 | 50 | 1009.7 |
| 20260506192935 | 56 | 135 | 0.0 | 0.0 | 0.00 | 0.67 | 0.67 | 51 | 1009.7 |
| 20260506192533 | 56 | 180 | 0.0 | 0.0 | 0.00 | 0.67 | 0.67 | 51 | 1009.7 |
| 20260506192132 | 56 | 135 | 0.0 | 0.0 | 0.00 | 0.67 | 0.67 | 51 | 1009.6 |
| 20260506191731 | 56 | 90 | 0.0 | 1.0 | 0.00 | 0.67 | 0.67 | 51 | 1009.6 |
| 20260506191329 | 56 | 315 | 0.0 | 0.0 | 0.00 | 0.67 | 0.67 | 50 | 1009.5 |
| 20260506190928 | 56 | 90 | 0.0 | 0.0 | 0.00 | 0.67 | 0.67 | 50 | 1009.4 |
| 20260506190527 | 56 | 68 | 0.0 | 0.0 | 0.00 | 0.67 | 0.67 | 50 | 1009.4 |
| 20260506185123 | 56 | 45 | 0.0 | 0.0 | 0.00 | 0.67 | 0.67 | 49 | 1009.2 |
| 20260506184722 | 56 | 135 | 0.0 | 0.0 | 0.00 | 0.67 | 0.67 | 48 | 1009.3 |
| 20260506184321 | 56 | 315 | 0.0 | 0.0 | 0.00 | 0.67 | 0.67 | 48 | 1009.2 |
| 20260506183919 | 56 | 68 | 0.0 | 0.0 | 0.00 | 0.67 | 0.67 | 48 | 1009.1 |
| 20260506183518 | 56 | 270 | 0.0 | 0.0 | 0.00 | 0.67 | 0.67 | 49 | 1008.9 |
| 20260506183116 | 56 | 45 | 0.0 | 1.0 | 0.00 | 0.67 | 0.67 | 48 | 1009.0 |
| 20260506182715 | 56 | 135 | 0.0 | 0.0 | 0.00 | 0.67 | 0.67 | 48 | 1008.9 |
| 20260506181712 | 56 | 113 | 0.0 | 0.0 | 0.00 | 0.67 | 0.67 | 50 | 1008.8 |
| 20260506181311 | 56 | 135 | 0.0 | 0.0 | 0.00 | 0.67 | 0.67 | 50 | 1008.8 |
| 20260506180910 | 56 | 135 | 0.0 | 0.0 | 0.00 | 0.67 | 0.67 | 51 | 1008.6 |
| 20260506180508 | 56 | 135 | 0.0 | 0.0 | 0.00 | 0.67 | 0.67 | 50 | 1008.5 |
| 20260506180108 | 56 | 180 | 0.0 | 0.0 | 0.00 | 0.67 | 0.67 | 50 | 1008.5 |
| 20260506175706 | 56 | 135 | 0.0 | 0.0 | 0.00 | 0.67 | 0.67 | 50 | 1008.5 |
| 20260506175306 | 56 | 135 | 0.0 | 0.0 | 0.00 | 0.67 | 0.67 | 50 | 1008.5 |
| 20260506174904 | 56 | 180 | 0.0 | 0.0 | 0.00 | 0.67 | 0.67 | 49 | 1008.5 |
| 20260506174302 | 56 | 180 | 0.0 | 0.0 | 0.00 | 0.67 | 0.67 | 48 | 1008.5 |
| 20260506173902 | 56 | 180 | 0.0 | 0.0 | 0.00 | 0.67 | 0.67 | 48 | 1008.5 |
| 20260506173500 | 57 | 135 | 0.0 | 0.0 | 0.00 | 0.67 | 0.67 | 47 | 1008.5 |
| 20260506173100 | 57 | 90 | 0.0 | 0.0 | 0.00 | 0.67 | 0.67 | 47 | 1008.4 |
| 20260506172658 | 57 | 135 | 0.0 | 0.0 | 0.00 | 0.67 | 0.67 | 46 | 1008.4 |
| 20260506172256 | 57 | 270 | 0.0 | 0.0 | 0.00 | 0.67 | 0.67 | 46 | 1008.3 |
| 20260506171855 | 57 | 225 | 0.0 | 0.0 | 0.00 | 0.67 | 0.67 | 46 | 1008.2 |
| 20260506170455 | 58 | 113 | 0.0 | 1.0 | 0.00 | 0.67 | 0.67 | 44 | 1008.2 |
| 20260506170050 | 58 | 90 | 0.0 | 0.0 | 0.00 | 0.67 | 0.67 | 44 | 1008.2 |
| 20260506165649 | 58 | 90 | 0.0 | 0.0 | 0.00 | 0.67 | 0.67 | 43 | 1008.1 |
| 20260506165248 | 58 | 90 | 0.0 | 0.0 | 0.00 | 0.67 | 0.67 | 42 | 1008.3 |
| 20260506164245 | 59 | 270 | 0.0 | 0.0 | 0.00 | 0.67 | 0.67 | 40 | 1008.4 |
| 20260506163844 | 59 | 45 | 0.0 | 0.0 | 0.00 | 0.67 | 0.67 | 39 | 1008.3 |
| 20260506163442 | 59 | 45 | 0.0 | 0.0 | 0.00 | 0.67 | 0.67 | 37 | 1008.2 |
| 20260506163041 | 60 | 180 | 0.0 | 0.0 | 0.00 | 0.67 | 0.67 | 36 | 1008.3 |
| 20260506162639 | 60 | 90 | 0.0 | 0.0 | 0.00 | 0.67 | 0.67 | 35 | 1008.1 |
| 20260506162238 | 60 | 135 | 0.0 | 0.0 | 0.00 | 0.67 | 0.67 | 35 | 1008.2 |
| 20260506161836 | 61 | 180 | 0.0 | 0.0 | 0.00 | 0.67 | 0.67 | 34 | 1008.2 |
| 20260506161435 | 61 | 135 | 0.0 | 0.0 | 0.00 | 0.67 | 0.67 | 32 | 1008.2 |
| 20260506160834 | 63 | 0 | 0.0 | 1.0 | 0.00 | 0.67 | 0.67 | 32 | 1008.2 |
| 20260506160032 | 61 | 135 | 0.0 | 0.0 | 0.00 | 0.67 | 0.67 | 36 | 1008.1 |
| 20260506155631 | 61 | 135 | 0.0 | 1.0 | 0.00 | 0.67 | 0.67 | 35 | 1008.1 |
| 20260506155229 | 61 | 135 | 0.0 | 0.0 | 0.00 | 0.67 | 0.67 | 37 | 1008.0 |
| 20260506154828 | 60 | 90 | 0.0 | 2.0 | 0.00 | 0.67 | 0.67 | 38 | 1008.1 |
| 20260506154426 | 61 | 180 | 0.0 | 2.0 | 0.00 | 0.67 | 0.67 | 37 | 1008.0 |
| 20260506154225 | 61 | 0 | 0.0 | 1.0 | 0.00 | 0.67 | 0.67 | 35 | 1008.0 |
| 20260506153825 | 61 | 135 | 0.0 | 0.0 | 0.00 | 0.67 | 0.67 | 35 | 1008.1 |
| 20260506153423 | 61 | 158 | 0.0 | 1.0 | 0.00 | 0.67 | 0.67 | 35 | 1008.0 |
| 20260506153022 | 61 | 180 | 0.0 | 1.0 | 0.00 | 0.67 | 0.67 | 34 | 1008.0 |
| 20260506152620 | 62 | 45 | 0.0 | 0.0 | 0.00 | 0.67 | 0.67 | 34 | 1007.9 |
| 20260506152219 | 63 | 135 | 0.0 | 1.0 | 0.00 | 0.67 | 0.67 | 32 | 1008.1 |
| 20260506151818 | 63 | 315 | 0.0 | 0.0 | 0.00 | 0.67 | 0.67 | 32 | 1007.9 |
| 20260506151417 | 63 | 135 | 0.0 | 0.0 | 0.00 | 0.67 | 0.67 | 31 | 1007.9 |
| 20260506150414 | 64 | 135 | 0.0 | 0.0 | 0.00 | 0.67 | 0.67 | 31 | 1008.0 |
| 20260506150013 | 64 | 135 | 0.0 | 0.0 | 0.00 | 0.67 | 0.67 | 31 | 1007.9 |
| 20260506145612 | 64 | 270 | 0.0 | 0.0 | 0.00 | 0.67 | 0.67 | 32 | 1007.8 |
| 20260506145211 | 64 | 180 | 0.0 | 1.0 | 0.00 | 0.67 | 0.67 | 32 | 1007.8 |
| 20260506144809 | 65 | 315 | 0.0 | 0.0 | 0.00 | 0.67 | 0.67 | 31 | 1008.0 |
| 20260506144408 | 65 | 135 | 0.0 | 1.0 | 0.00 | 0.67 | 0.67 | 33 | 1007.9 |
| 20260506144008 | 65 | 315 | 1.0 | 3.0 | 0.00 | 0.67 | 0.67 | 30 | 1007.9 |
| 20260506143406 | 65 | 180 | 0.0 | 0.0 | 0.00 | 0.67 | 0.67 | 34 | 1007.8 |
| 20260506143005 | 66 | 158 | 0.0 | 1.0 | 0.00 | 0.67 | 0.67 | 30 | 1007.9 |
| 20260506142603 | 67 | 0 | 0.0 | 1.0 | 0.00 | 0.67 | 0.67 | 29 | 1007.9 |
| 20260506141801 | 68 | 135 | 0.0 | 1.0 | 0.00 | 0.67 | 0.67 | 30 | 1008.1 |
| 20260506141359 | 69 | 90 | 0.0 | 0.0 | 0.00 | 0.67 | 0.67 | 29 | 1007.9 |
| 20260506140958 | 69 | 135 | 0.0 | 0.0 | 0.00 | 0.67 | 0.67 | 28 | 1008.1 |
| 20260506140757 | 68 | 90 | 0.0 | 3.0 | 0.00 | 0.67 | 0.67 | 31 | 1007.9 |
| 20260506140356 | 68 | 225 | 0.0 | 1.0 | 0.00 | 0.67 | 0.67 | 34 | 1007.9 |
| 20260506135955 | 68 | 180 | 0.0 | 1.0 | 0.00 | 0.67 | 0.67 | 34 | 1007.9 |
| 20260506135553 | 67 | 315 | 0.0 | 1.0 | 0.00 | 0.67 | 0.67 | 35 | 1007.9 |
| 20260506135153 | 67 | 180 | 0.0 | 0.0 | 0.00 | 0.67 | 0.67 | 34 | 1008.1 |
| 20260506134751 | 67 | 270 | 0.0 | 0.0 | 0.00 | 0.67 | 0.67 | 32 | 1008.0 |
| 20260506134350 | 67 | 180 | 0.0 | 0.0 | 0.00 | 0.67 | 0.67 | 34 | 1008.1 |
| 20260506133347 | 64 | 0 | 0.0 | 1.0 | 0.00 | 0.67 | 0.67 | 36 | 1008.1 |
| 20260506132946 | 63 | 158 | 0.0 | 0.0 | 0.00 | 0.67 | 0.67 | 34 | 1008.1 |
| 20260506132545 | 64 | 293 | 0.0 | 1.0 | 0.00 | 0.67 | 0.67 | 33 | 1008.0 |
| 20260506132144 | 65 | 90 | 0.0 | 4.0 | 0.00 | 0.67 | 0.67 | 35 | 1008.1 |
| 20260506131743 | 65 | 90 | 1.0 | 4.0 | 0.00 | 0.67 | 0.67 | 35 | 1008.1 |
| 20260506131141 | 67 | 135 | 2.0 | 5.0 | 0.00 | 0.67 | 0.67 | 34 | 1008.0 |
| 20260506130741 | 66 | 135 | 0.0 | 2.0 | 0.00 | 0.67 | 0.67 | 34 | 1008.1 |
| 20260506130340 | 67 | 90 | 0.0 | 0.0 | 0.00 | 0.67 | 0.67 | 34 | 1008.0 |
| 20260506125938 | 67 | 158 | 2.0 | 7.0 | 0.00 | 0.67 | 0.67 | 34 | 1008.1 |
| 20260506125537 | 67 | 135 | 0.0 | 0.0 | 0.00 | 0.67 | 0.67 | 35 | 1008.1 |
| 20260506125136 | 68 | 135 | 0.0 | 1.0 | 0.00 | 0.67 | 0.67 | 34 | 1008.1 |
| 20260506124535 | 67 | 135 | 0.0 | 0.0 | 0.00 | 0.67 | 0.67 | 34 | 1008.2 |
| 20260506124134 | 66 | 315 | 0.0 | 0.0 | 0.00 | 0.67 | 0.67 | 39 | 1008.1 |
| 20260506123732 | 65 | 135 | 0.0 | 0.0 | 0.00 | 0.67 | 0.67 | 39 | 1008.1 |
| 20260506123332 | 65 | 90 | 0.0 | 0.0 | 0.00 | 0.67 | 0.67 | 38 | 1008.0 |
| 20260506122930 | 64 | 225 | 0.0 | 1.0 | 0.00 | 0.67 | 0.67 | 41 | 1008.2 |
| 20260506122528 | 64 | 90 | 0.0 | 1.0 | 0.00 | 0.67 | 0.67 | 41 | 1008.0 |
| 20260506122127 | 64 | 135 | 0.0 | 0.0 | 0.00 | 0.67 | 0.67 | 40 | 1008.0 |
| 20260506121128 | 62 | 135 | 0.0 | 0.0 | 0.00 | 0.67 | 0.67 | 42 | 1007.9 |
| 20260506120725 | 62 | 90 | 0.0 | 1.0 | 0.00 | 0.67 | 0.67 | 42 | 1008.0 |
| 20260506120323 | 63 | 90 | 0.0 | 1.0 | 0.00 | 0.67 | 0.67 | 41 | 1007.9 |
| 20260506115922 | 63 | 135 | 0.0 | 2.0 | 0.00 | 0.67 | 0.67 | 39 | 1007.8 |
| 20260506115520 | 64 | 90 | 0.0 | 1.0 | 0.00 | 0.67 | 0.67 | 37 | 1007.9 |
| 20260506115119 | 65 | 158 | 0.0 | 0.0 | 0.00 | 0.67 | 0.67 | 38 | 1008.0 |